Precipitable_Water
0.91 0.91 0.93 0.91 0.87 0.81 0.81 0.88 0.91 0.91 0.89 0.93 0.94 0.96 0.94 0.92 0.86 0.80 0.80 0.78 0.78 0.79 0.73 0.73 0.73 0.72 0.71 0.70 0.70 0.68 0.67 0.66 0.63 0.64 0.61 0.62 0.60 0.61 0.57 0.54 0.52 0.53 0.50 0.45 0.44 0.43 0.40 0.40 0.41 0.45 0.43 0.39 0.39 0.37 0.38 0.41 0.41 0.41 0.41 0.41 0.38 0.38 0.38 0.36 0.34 0.33 0.38 0.45 0.44 0.43 0.45 0.46 0.42 0.44 0.42 0.42 0.44 0.49 0.52 0.53 0.53 0.53 0.53 0.53 0.51
0.94 0.94 0.96 0.95 0.89 0.83 0.83 0.89 0.90 0.92 0.92 0.94 0.96 0.97 0.94 0.95 0.97 0.91 0.82 0.83 0.80 0.78 0.74 0.74 0.74 0.73 0.70 0.70 0.70 0.69 0.69 0.69 0.67 0.69 0.64 0.64 0.62 0.62 0.57 0.56 0.54 0.54 0.51 0.51 0.52 0.47 0.45 0.43 0.42 0.42 0.42 0.38 0.38 0.38 0.39 0.39 0.37 0.35 0.36 0.39 0.39 0.39 0.40 0.36 0.34 0.32 0.30 0.37 0.37 0.44 0.43 0.45 0.39 0.45 0.42 0.42 0.41 0.42 0.43 0.45 0.46 0.47 0.48 0.49 0.49
0.98 1.00 1.02 1.00 0.97 0.94 0.90 0.87 0.87 0.88 0.88 0.90 0.95 0.97 0.92 1.01 1.07 0.99 0.90 0.87 0.86 0.83 0.80 0.77 0.75 0.75 0.72 0.70 0.69 0.70 0.71 0.71 0.71 0.69 0.68 0.68 0.66 0.64 0.61 0.59 0.58 0.56 0.53 0.52 0.51 0.54 0.50 0.50 0.49 0.49 0.46 0.43 0.42 0.41 0.41 0.40 0.40 0.38 0.37 0.36 0.36 0.37 0.38 0.38 0.35 0.31 0.30 0.30 0.35 0.34 0.37 0.41 0.41 0.40 0.40 0.40 0.40 0.41 0.39 0.38 0.39 0.41 0.43 0.45 0.46
1.00 1.00 1.02 1.08 1.06 1.05 1.02 0.99 0.94 0.92 0.90 0.90 0.91 0.99 0.96 0.89 0.95 1.02 1.00 0.95 0.92 0.91 0.87 0.82 0.82 0.79 0.76 0.72 0.70 0.70 0.71 0.73 0.74 0.71 0.69 0.69 0.68 0.66 0.64 0.62 0.62 0.62 0.59 0.58 0.55 0.54 0.53 0.51 0.51 0.50 0.49 0.46 0.44 0.41 0.39 0.39 0.39 0.39 0.37 0.35 0.36 0.37 0.41 0.43 0.43 0.39 0.37 0.32 0.35 0.34 0.36 0.35 0.36 0.38 0.38 0.38 0.37 0.37 0.37 0.38 0.40 0.39 0.39 0.43 0.46
0.86 0.94 1.08 1.08 1.08 1.07 1.06 1.07 1.04 1.03 0.98 0.98 0.99 1.04 1.04 0.96 0.91 0.93 1.00 0.99 1.00 0.95 0.93 0.89 0.86 0.84 0.81 0.79 0.77 0.74 0.73 0.73 0.76 0.76 0.73 0.73 0.71 0.69 0.67 0.65 0.64 0.63 0.62 0.60 0.58 0.54 0.56 0.53 0.52 0.51 0.49 0.46 0.46 0.47 0.45 0.41 0.36 0.34 0.33 0.34 0.33 0.33 0.34 0.35 0.36 0.37 0.35 0.32 0.32 0.35 0.35 0.35 0.36 0.36 0.37 0.35 0.35 0.36 0.37 0.36 0.37 0.38 0.38 0.37 0.38
0.81 0.90 0.99 1.03 1.05 1.03 1.03 1.05 1.03 1.03 1.03 1.01 1.01 1.00 1.02 1.05 1.05 1.03 1.01 0.95 0.90 0.99 0.97 0.93 0.90 0.86 0.86 0.86 0.85 0.83 0.81 0.78 0.76 0.76 0.75 0.75 0.73 0.71 0.69 0.68 0.68 0.66 0.65 0.62 0.60 0.61 0.57 0.55 0.55 0.54 0.52 0.48 0.47 0.48 0.45 0.43 0.41 0.38 0.36 0.36 0.35 0.34 0.32 0.32 0.32 0.31 0.31 0.30 0.32 0.32 0.35 0.33 0.33 0.34 0.36 0.37 0.35 0.34 0.35 0.36 0.37 0.35 0.35 0.37 0.40
0.70 0.76 0.75 0.77 0.76 0.78 0.85 0.94 1.01 1.02 1.03 1.06 1.10 1.12 1.10 1.10 1.05 1.06 1.05 1.03 1.02 0.95 0.97 0.95 0.92 0.90 0.89 0.89 0.88 0.88 0.86 0.85 0.81 0.77 0.75 0.76 0.75 0.73 0.69 0.68 0.69 0.69 0.68 0.64 0.62 0.61 0.58 0.56 0.55 0.55 0.53 0.53 0.52 0.50 0.50 0.49 0.46 0.43 0.42 0.40 0.40 0.38 0.36 0.35 0.34 0.32 0.31 0.30 0.30 0.31 0.31 0.35 0.36 0.34 0.38 0.39 0.37 0.35 0.32 0.31 0.32 0.37 0.41 0.47 0.50
0.55 0.56 0.59 0.62 0.66 0.69 0.69 0.66 0.66 0.74 0.87 0.99 1.04 1.07 1.09 1.10 1.10 1.12 1.10 1.09 1.06 1.03 1.01 0.96 0.95 0.91 0.89 0.90 0.90 0.89 0.88 0.87 0.85 0.80 0.77 0.76 0.74 0.74 0.75 0.73 0.69 0.69 0.68 0.64 0.62 0.62 0.61 0.57 0.55 0.55 0.54 0.55 0.54 0.51 0.48 0.44 0.43 0.40 0.39 0.38 0.36 0.35 0.32 0.32 0.32 0.32 0.31 0.31 0.30 0.30 0.31 0.30 0.31 0.33 0.35 0.36 0.34 0.34 0.38 0.39 0.37 0.38 0.39 0.39 0.35
0.53 0.54 0.56 0.57 0.58 0.63 0.67 0.71 0.74 0.71 0.71 0.74 0.79 0.86 0.96 1.00 0.97 0.94 0.96 1.01 1.05 1.03 1.01 1.00 0.97 0.93 0.92 0.90 0.90 0.90 0.89 0.87 0.86 0.82 0.79 0.78 0.78 0.76 0.75 0.74 0.71 0.68 0.65 0.62 0.63 0.62 0.61 0.59 0.57 0.55 0.57 0.50 0.42 0.40 0.38 0.38 0.36 0.35 0.35 0.36 0.35 0.35 0.35 0.33 0.32 0.31 0.31 0.30 0.30 0.31 0.30 0.31 0.33 0.34 0.34 0.33 0.32 0.33 0.38 0.39 0.34 0.33 0.33 0.33 0.35
0.45 0.45 0.46 0.49 0.52 0.54 0.56 0.59 0.63 0.65 0.67 0.68 0.69 0.70 0.68 0.71 0.82 0.92 1.01 1.03 1.01 0.99 0.97 0.98 0.99 0.98 0.95 0.92 0.92 0.90 0.90 0.90 0.91 0.88 0.85 0.82 0.80 0.78 0.76 0.73 0.70 0.67 0.64 0.62 0.62 0.61 0.61 0.60 0.57 0.55 0.50 0.46 0.45 0.45 0.43 0.41 0.39 0.37 0.38 0.38 0.35 0.34 0.33 0.33 0.32 0.31 0.30 0.28 0.28 0.29 0.28 0.27 0.28 0.30 0.31 0.34 0.37 0.37 0.34 0.34 0.32 0.34 0.37 0.35 0.36
0.45 0.45 0.43 0.43 0.44 0.44 0.43 0.46 0.52 0.55 0.60 0.65 0.68 0.70 0.70 0.72 0.74 0.77 0.84 0.90 0.92 0.92 0.91 0.91 0.94 0.98 0.99 0.95 0.92 0.92 0.92 0.92 0.93 0.88 0.87 0.84 0.82 0.78 0.75 0.70 0.67 0.65 0.63 0.61 0.59 0.60 0.62 0.62 0.61 0.59 0.53 0.50 0.51 0.52 0.51 0.47 0.46 0.46 0.45 0.41 0.39 0.36 0.32 0.31 0.31 0.31 0.30 0.28 0.28 0.27 0.27 0.26 0.27 0.29 0.31 0.33 0.36 0.36 0.36 0.37 0.36 0.35 0.33 0.30 0.27
0.42 0.43 0.44 0.43 0.42 0.42 0.42 0.42 0.41 0.43 0.47 0.52 0.58 0.64 0.68 0.70 0.70 0.71 0.73 0.75 0.79 0.82 0.85 0.87 0.87 0.87 0.90 0.90 0.91 0.92 0.94 0.88 0.86 0.86 0.86 0.84 0.83 0.81 0.77 0.71 0.67 0.65 0.63 0.62 0.61 0.60 0.59 0.59 0.57 0.56 0.55 0.55 0.55 0.50 0.49 0.51 0.53 0.53 0.52 0.50 0.47 0.43 0.40 0.37 0.33 0.32 0.32 0.31 0.31 0.31 0.30 0.30 0.32 0.34 0.34 0.35 0.36 0.37 0.39 0.40 0.38 0.35 0.32 0.29 0.29
0.38 0.38 0.38 0.38 0.38 0.38 0.39 0.38 0.38 0.39 0.41 0.42 0.47 0.55 0.59 0.63 0.64 0.63 0.64 0.69 0.74 0.75 0.77 0.81 0.80 0.82 0.84 0.83 0.83 0.84 0.83 0.81 0.79 0.78 0.79 0.79 0.79 0.77 0.74 0.71 0.65 0.63 0.63 0.63 0.60 0.57 0.56 0.53 0.51 0.52 0.54 0.53 0.52 0.52 0.54 0.56 0.55 0.53 0.51 0.51 0.51 0.51 0.50 0.47 0.43 0.39 0.38 0.35 0.33 0.31 0.31 0.31 0.30 0.32 0.36 0.37 0.38 0.36 0.36 0.35 0.35 0.35 0.34 0.33 0.34
0.37 0.36 0.36 0.36 0.36 0.36 0.36 0.36 0.37 0.37 0.38 0.38 0.38 0.40 0.47 0.53 0.59 0.62 0.62 0.63 0.65 0.66 0.69 0.69 0.73 0.76 0.79 0.80 0.78 0.80 0.72 0.72 0.72 0.73 0.73 0.72 0.71 0.70 0.68 0.65 0.61 0.60 0.60 0.60 0.59 0.55 0.52 0.50 0.48 0.48 0.50 0.52 0.53 0.53 0.52 0.52 0.50 0.49 0.49 0.51 0.53 0.54 0.54 0.53 0.50 0.46 0.44 0.41 0.39 0.36 0.37 0.39 0.36 0.37 0.38 0.39 0.36 0.34 0.35 0.34 0.36 0.34 0.34 0.34 0.38
0.36 0.36 0.34 0.34 0.35 0.36 0.36 0.37 0.37 0.36 0.34 0.34 0.33 0.33 0.35 0.40 0.47 0.53 0.54 0.55 0.57 0.59 0.61 0.62 0.65 0.70 0.76 0.78 0.81 0.77 0.71 0.69 0.70 0.71 0.70 0.68 0.66 0.66 0.64 0.62 0.60 0.59 0.58 0.56 0.53 0.51 0.49 0.48 0.47 0.48 0.50 0.49 0.50 0.52 0.49 0.45 0.45 0.45 0.43 0.43 0.45 0.48 0.50 0.52 0.52 0.50 0.48 0.46 0.44 0.44 0.44 0.45 0.44 0.44 0.46 0.46 0.43 0.41 0.40 0.39 0.39 0.39 0.39 0.40 0.38
0.35 0.36 0.35 0.34 0.34 0.36 0.37 0.36 0.35 0.33 0.33 0.34 0.34 0.36 0.38 0.41 0.45 0.51 0.50 0.53 0.55 0.53 0.53 0.56 0.63 0.69 0.71 0.75 0.79 0.69 0.66 0.69 0.68 0.67 0.65 0.63 0.61 0.61 0.61 0.60 0.58 0.57 0.56 0.54 0.53 0.51 0.50 0.49 0.49 0.50 0.50 0.50 0.49 0.49 0.47 0.45 0.41 0.39 0.37 0.38 0.40 0.43 0.46 0.51 0.51 0.49 0.47 0.47 0.48 0.48 0.48 0.49 0.49 0.47 0.46 0.46 0.45 0.45 0.44 0.44 0.43 0.42 0.39 0.35 0.31
0.36 0.36 0.35 0.35 0.36 0.38 0.38 0.37 0.36 0.35 0.33 0.32 0.32 0.34 0.36 0.39 0.45 0.51 0.51 0.52 0.52 0.51 0.49 0.51 0.57 0.63 0.69 0.71 0.69 0.58 0.57 0.58 0.58 0.59 0.59 0.57 0.57 0.56 0.58 0.58 0.56 0.55 0.54 0.54 0.53 0.52 0.51 0.51 0.49 0.48 0.48 0.47 0.46 0.43 0.42 0.41 0.39 0.37 0.37 0.37 0.39 0.39 0.40 0.45 0.48 0.48 0.47 0.45 0.44 0.44 0.43 0.41 0.41 0.42 0.43 0.44 0.45 0.45 0.43 0.39 0.37 0.40 0.36 0.32 0.32
0.37 0.36 0.35 0.36 0.37 0.40 0.40 0.39 0.36 0.36 0.35 0.33 0.32 0.34 0.37 0.38 0.43 0.51 0.50 0.51 0.51 0.53 0.53 0.53 0.56 0.63 0.67 0.67 0.58 0.51 0.53 0.55 0.54 0.54 0.55 0.54 0.55 0.55 0.55 0.55 0.54 0.54 0.55 0.56 0.54 0.52 0.51 0.49 0.48 0.47 0.46 0.46 0.46 0.45 0.45 0.44 0.40 0.38 0.37 0.36 0.36 0.36 0.38 0.40 0.43 0.45 0.46 0.46 0.45 0.45 0.44 0.43 0.42 0.41 0.40 0.41 0.41 0.42 0.41 0.36 0.39 0.40 0.35 0.35 0.31
0.37 0.36 0.37 0.37 0.38 0.39 0.39 0.39 0.38 0.36 0.34 0.34 0.33 0.34 0.35 0.37 0.40 0.48 0.49 0.51 0.54 0.52 0.51 0.52 0.58 0.63 0.63 0.58 0.50 0.53 0.55 0.53 0.51 0.50 0.50 0.50 0.52 0.53 0.51 0.49 0.49 0.50 0.50 0.51 0.52 0.51 0.50 0.51 0.50 0.49 0.48 0.48 0.48 0.46 0.44 0.41 0.37 0.36 0.37 0.36 0.34 0.34 0.36 0.39 0.39 0.40 0.40 0.41 0.42 0.44 0.44 0.44 0.44 0.43 0.43 0.43 0.42 0.42 0.41 0.40 0.40 0.38 0.34 0.34 0.35
0.39 0.38 0.37 0.37 0.38 0.40 0.41 0.41 0.41 0.40 0.38 0.38 0.38 0.38 0.38 0.39 0.43 0.47 0.49 0.51 0.53 0.55 0.50 0.55 0.56 0.50 0.52 0.53 0.53 0.53 0.52 0.50 0.48 0.47 0.46 0.46 0.47 0.50 0.50 0.46 0.47 0.51 0.51 0.51 0.51 0.51 0.49 0.49 0.48 0.47 0.46 0.47 0.46 0.45 0.43 0.41 0.39 0.39 0.38 0.35 0.34 0.32 0.37 0.38 0.39 0.40 0.39 0.39 0.40 0.41 0.40 0.42 0.42 0.43 0.42 0.42 0.43 0.44 0.44 0.43 0.42 0.40 0.36 0.34 0.34
0.40 0.39 0.38 0.38 0.37 0.38 0.39 0.41 0.41 0.41 0.41 0.41 0.41 0.41 0.44 0.44 0.46 0.48 0.48 0.52 0.52 0.55 0.56 0.52 0.48 0.47 0.51 0.52 0.51 0.51 0.50 0.47 0.47 0.46 0.45 0.45 0.46 0.47 0.48 0.49 0.53 0.53 0.52 0.53 0.51 0.45 0.42 0.42 0.43 0.43 0.44 0.43 0.42 0.40 0.40 0.41 0.40 0.40 0.39 0.37 0.37 0.37 0.38 0.36 0.37 0.38 0.37 0.37 0.37 0.37 0.38 0.38 0.38 0.39 0.39 0.39 0.40 0.41 0.42 0.43 0.44 0.44 0.41 0.38 0.36
0.44 0.42 0.41 0.40 0.40 0.41 0.41 0.43 0.44 0.43 0.42 0.41 0.41 0.43 0.45 0.48 0.48 0.48 0.52 0.54 0.56 0.56 0.51 0.50 0.50 0.50 0.51 0.53 0.54 0.51 0.47 0.46 0.45 0.44 0.45 0.46 0.47 0.47 0.47 0.48 0.54 0.54 0.52 0.49 0.45 0.41 0.40 0.40 0.39 0.43 0.41 0.40 0.39 0.40 0.39 0.39 0.39 0.39 0.38 0.38 0.38 0.37 0.36 0.37 0.36 0.36 0.36 0.35 0.35 0.35 0.36 0.36 0.36 0.37 0.38 0.38 0.39 0.41 0.41 0.42 0.43 0.43 0.44 0.44 0.42
0.45 0.44 0.43 0.43 0.43 0.44 0.45 0.45 0.44 0.46 0.45 0.44 0.41 0.42 0.45 0.46 0.49 0.50 0.50 0.53 0.54 0.50 0.46 0.48 0.50 0.50 0.50 0.52 0.51 0.49 0.48 0.47 0.46 0.46 0.47 0.47 0.47 0.46 0.45 0.46 0.49 0.48 0.45 0.41 0.38 0.37 0.37 0.37 0.39 0.41 0.41 0.41 0.41 0.40 0.38 0.38 0.38 0.37 0.37 0.37 0.37 0.37 0.37 0.37 0.36 0.36 0.35 0.35 0.35 0.34 0.35 0.36 0.36 0.36 0.37 0.38 0.40 0.41 0.42 0.42 0.43 0.44 0.44 0.45 0.46
0.43 0.42 0.41 0.42 0.44 0.46 0.45 0.44 0.45 0.46 0.46 0.45 0.44 0.42 0.43 0.45 0.45 0.49 0.56 0.53 0.49 0.47 0.45 0.47 0.49 0.48 0.48 0.50 0.50 0.48 0.47 0.48 0.48 0.47 0.46 0.45 0.45 0.44 0.43 0.42 0.40 0.39 0.39 0.36 0.36 0.37 0.38 0.40 0.42 0.40 0.39 0.37 0.37 0.36 0.36 0.36 0.37 0.37 0.38 0.38 0.38 0.38 0.38 0.37 0.37 0.36 0.36 0.35 0.34 0.34 0.34 0.36 0.37 0.37 0.38 0.40 0.41 0.42 0.44 0.45 0.45 0.45 0.45 0.46 0.46
0.41 0.40 0.40 0.41 0.43 0.44 0.46 0.46 0.45 0.45 0.46 0.46 0.43 0.42 0.43 0.47 0.48 0.53 0.54 0.51 0.48 0.45 0.47 0.48 0.48 0.48 0.47 0.46 0.45 0.46 0.47 0.47 0.48 0.46 0.44 0.44 0.43 0.43 0.42 0.41 0.40 0.40 0.39 0.40 0.38 0.38 0.38 0.38 0.38 0.38 0.37 0.37 0.36 0.37 0.37 0.37 0.38 0.38 0.37 0.37 0.37 0.38 0.37 0.37 0.37 0.37 0.36 0.35 0.35 0.36 0.36 0.37 0.38 0.40 0.42 0.43 0.45 0.46 0.46 0.47 0.48 0.48 0.48 0.48 0.48
0.37 0.37 0.37 0.36 0.37 0.41 0.43 0.44 0.45 0.46 0.48 0.47 0.46 0.48 0.52 0.53 0.51 0.52 0.52 0.51 0.49 0.46 0.47 0.48 0.47 0.47 0.46 0.45 0.45 0.47 0.47 0.45 0.46 0.47 0.46 0.45 0.44 0.44 0.43 0.43 0.42 0.40 0.39 0.38 0.38 0.39 0.40 0.40 0.38 0.38 0.37 0.37 0.37 0.37 0.37 0.37 0.37 0.37 0.38 0.38 0.39 0.38 0.38 0.37 0.37 0.37 0.36 0.37 0.37 0.37 0.38 0.40 0.40 0.42 0.44 0.45 0.45 0.45 0.46 0.46 0.46 0.46 0.47 0.46 0.46
0.37 0.37 0.37 0.38 0.40 0.41 0.41 0.40 0.40 0.42 0.45 0.50 0.53 0.55 0.56 0.55 0.53 0.51 0.51 0.49 0.47 0.47 0.48 0.46 0.46 0.45 0.44 0.45 0.46 0.45 0.44 0.44 0.45 0.46 0.47 0.46 0.46 0.46 0.43 0.43 0.43 0.42 0.42 0.42 0.41 0.42 0.42 0.39 0.37 0.37 0.38 0.38 0.38 0.38 0.37 0.38 0.38 0.39 0.40 0.40 0.40 0.40 0.39 0.38 0.37 0.36 0.36 0.36 0.37 0.38 0.39 0.41 0.43 0.43 0.42 0.43 0.43 0.45 0.47 0.46 0.45 0.45 0.47 0.47 0.46
0.38 0.37 0.37 0.37 0.39 0.40 0.41 0.44 0.45 0.46 0.49 0.52 0.52 0.53 0.54 0.54 0.52 0.50 0.49 0.47 0.45 0.44 0.45 0.46 0.44 0.43 0.42 0.43 0.44 0.43 0.41 0.41 0.43 0.45 0.46 0.42 0.41 0.42 0.42 0.43 0.43 0.43 0.42 0.42 0.39 0.38 0.37 0.37 0.38 0.38 0.39 0.38 0.38 0.37 0.37 0.37 0.37 0.37 0.37 0.38 0.38 0.39 0.39 0.39 0.39 0.39 0.39 0.39 0.39 0.39 0.39 0.40 0.39 0.40 0.42 0.43 0.44 0.46 0.48 0.47 0.46 0.47 0.48 0.48 0.46
0.38 0.37 0.38 0.39 0.40 0.42 0.43 0.44 0.47 0.50 0.52 0.55 0.55 0.55 0.53 0.54 0.53 0.53 0.54 0.52 0.48 0.48 0.48 0.48 0.45 0.43 0.42 0.43 0.43 0.43 0.45 0.45 0.42 0.40 0.39 0.40 0.37 0.35 0.37 0.40 0.41 0.40 0.41 0.39 0.36 0.36 0.36 0.36 0.36 0.35 0.35 0.34 0.34 0.34 0.35 0.35 0.35 0.36 0.36 0.37 0.37 0.37 0.37 0.37 0.36 0.37 0.38 0.38 0.38 0.38 0.39 0.40 0.41 0.43 0.44 0.44 0.45 0.46 0.49 0.48 0.49 0.49 0.51 0.51 0.48
0.38 0.39 0.41 0.40 0.41 0.42 0.44 0.50 0.55 0.54 0.53 0.52 0.53 0.54 0.58 0.60 0.57 0.52 0.49 0.50 0.51 0.50 0.48 0.47 0.49 0.49 0.46 0.47 0.49 0.45 0.42 0.40 0.40 0.41 0.42 0.42 0.41 0.42 0.42 0.42 0.41 0.39 0.37 0.37 0.36 0.34 0.34 0.33 0.33 0.33 0.32 0.32 0.32 0.32 0.33 0.33 0.34 0.34 0.35 0.36 0.37 0.37 0.37 0.37 0.37 0.38 0.39 0.39 0.39 0.40 0.40 0.41 0.41 0.43 0.44 0.45 0.46 0.48 0.50 0.51 0.51 0.53 0.51 0.50 0.51
0.40 0.40 0.39 0.40 0.42 0.44 0.46 0.50 0.56 0.57 0.55 0.54 0.54 0.53 0.52 0.53 0.53 0.52 0.49 0.50 0.51 0.50 0.48 0.47 0.46 0.46 0.44 0.42 0.44 0.45 0.44 0.43 0.44 0.43 0.43 0.42 0.42 0.41 0.40 0.39 0.38 0.37 0.36 0.34 0.33 0.32 0.31 0.30 0.30 0.31 0.32 0.33 0.32 0.33 0.34 0.34 0.34 0.34 0.35 0.36 0.37 0.38 0.38 0.38 0.39 0.40 0.40 0.40 0.41 0.42 0.42 0.42 0.42 0.44 0.45 0.46 0.47 0.49 0.51 0.53 0.53 0.54 0.53 0.53 0.53
0.41 0.40 0.41 0.45 0.48 0.48 0.51 0.53 0.55 0.54 0.55 0.55 0.54 0.52 0.50 0.47 0.47 0.46 0.46 0.46 0.45 0.45 0.43 0.43 0.44 0.46 0.47 0.46 0.43 0.42 0.43 0.44 0.44 0.43 0.42 0.41 0.40 0.39 0.38 0.37 0.36 0.34 0.33 0.33 0.30 0.30 0.30 0.30 0.31 0.32 0.33 0.32 0.33 0.34 0.34 0.35 0.35 0.35 0.36 0.36 0.37 0.38 0.39 0.39 0.41 0.42 0.42 0.42 0.42 0.42 0.43 0.44 0.44 0.46 0.47 0.48 0.49 0.50 0.51 0.52 0.53 0.55 0.56 0.57 0.57
0.46 0.46 0.47 0.51 0.52 0.53 0.55 0.54 0.56 0.55 0.55 0.54 0.52 0.49 0.46 0.44 0.43 0.43 0.45 0.46 0.45 0.44 0.46 0.48 0.48 0.48 0.46 0.45 0.44 0.44 0.44 0.44 0.43 0.42 0.40 0.39 0.37 0.36 0.35 0.35 0.35 0.34 0.32 0.30 0.29 0.29 0.30 0.31 0.32 0.32 0.33 0.33 0.34 0.35 0.35 0.36 0.36 0.37 0.37 0.37 0.38 0.40 0.42 0.43 0.44 0.44 0.44 0.44 0.45 0.45 0.46 0.46 0.47 0.47 0.48 0.49 0.50 0.50 0.53 0.54 0.56 0.58 0.58 0.57 0.57
0.47 0.48 0.52 0.54 0.55 0.57 0.58 0.56 0.56 0.56 0.56 0.54 0.51 0.47 0.46 0.45 0.44 0.43 0.41 0.40 0.41 0.44 0.47 0.48 0.48 0.47 0.47 0.46 0.46 0.45 0.43 0.42 0.40 0.39 0.37 0.35 0.34 0.34 0.35 0.35 0.35 0.34 0.31 0.28 0.29 0.29 0.30 0.31 0.32 0.33 0.34 0.35 0.36 0.37 0.37 0.37 0.38 0.39 0.40 0.41 0.42 0.43 0.44 0.46 0.45 0.45 0.46 0.46 0.46 0.47 0.48 0.49 0.50 0.50 0.50 0.52 0.54 0.56 0.56 0.57 0.58 0.57 0.56 0.56 0.56
0.51 0.52 0.55 0.57 0.59 0.60 0.60 0.59 0.58 0.57 0.56 0.53 0.49 0.46 0.44 0.43 0.42 0.42 0.42 0.41 0.42 0.43 0.43 0.45 0.47 0.47 0.46 0.45 0.43 0.43 0.42 0.40 0.38 0.36 0.34 0.33 0.33 0.33 0.34 0.33 0.31 0.30 0.30 0.30 0.28 0.29 0.31 0.32 0.33 0.34 0.35 0.36 0.37 0.38 0.38 0.39 0.41 0.42 0.43 0.44 0.45 0.46 0.46 0.47 0.47 0.48 0.48 0.49 0.50 0.50 0.51 0.52 0.53 0.53 0.54 0.54 0.55 0.55 0.56 0.57 0.57 0.58 0.57 0.57 0.57
0.54 0.54 0.56 0.58 0.61 0.62 0.61 0.62 0.60 0.58 0.54 0.50 0.48 0.44 0.45 0.46 0.47 0.47 0.47 0.46 0.45 0.43 0.43 0.44 0.45 0.45 0.45 0.43 0.42 0.40 0.38 0.36 0.34 0.33 0.32 0.32 0.32 0.33 0.31 0.28 0.27 0.26 0.24 0.25 0.27 0.31 0.33 0.34 0.35 0.36 0.37 0.38 0.39 0.40 0.42 0.43 0.44 0.45 0.46 0.46 0.46 0.47 0.47 0.48 0.49 0.49 0.50 0.51 0.52 0.53 0.53 0.54 0.55 0.55 0.56 0.56 0.56 0.56 0.56 0.56 0.57 0.58 0.58 0.58 0.58
0.59 0.60 0.62 0.63 0.64 0.62 0.61 0.61 0.60 0.57 0.54 0.51 0.51 0.51 0.50 0.49 0.47 0.46 0.45 0.44 0.42 0.42 0.44 0.43 0.43 0.42 0.42 0.40 0.38 0.35 0.34 0.33 0.34 0.34 0.32 0.31 0.31 0.32 0.32 0.29 0.26 0.25 0.23 0.26 0.29 0.32 0.33 0.34 0.36 0.37 0.39 0.40 0.41 0.43 0.44 0.45 0.47 0.47 0.48 0.49 0.49 0.49 0.49 0.50 0.51 0.51 0.52 0.52 0.53 0.54 0.54 0.55 0.56 0.56 0.56 0.55 0.56 0.57 0.57 0.58 0.58 0.58 0.58 0.58 0.58
0.66 0.65 0.65 0.64 0.63 0.62 0.60 0.58 0.57 0.55 0.51 0.49 0.49 0.47 0.45 0.44 0.43 0.42 0.40 0.40 0.41 0.42 0.42 0.42 0.41 0.38 0.36 0.34 0.32 0.31 0.33 0.32 0.32 0.32 0.31 0.31 0.31 0.32 0.32 0.30 0.27 0.24 0.24 0.27 0.31 0.33 0.34 0.36 0.38 0.39 0.41 0.43 0.44 0.46 0.47 0.47 0.48 0.49 0.49 0.49 0.50 0.50 0.51 0.51 0.52 0.52 0.53 0.53 0.54 0.55 0.55 0.56 0.57 0.57 0.57 0.57 0.57 0.57 0.57 0.58 0.57 0.57 0.58 0.58 0.57
0.64 0.64 0.63 0.62 0.61 0.60 0.57 0.55 0.52 0.48 0.46 0.45 0.44 0.44 0.43 0.43 0.43 0.43 0.43 0.43 0.43 0.43 0.42 0.40 0.36 0.33 0.33 0.33 0.33 0.33 0.32 0.30 0.29 0.29 0.30 0.27 0.29 0.32 0.32 0.31 0.28 0.25 0.25 0.29 0.32 0.34 0.35 0.36 0.39 0.41 0.43 0.45 0.46 0.47 0.48 0.48 0.49 0.49 0.50 0.50 0.50 0.50 0.50 0.51 0.51 0.52 0.53 0.54 0.55 0.56 0.56 0.57 0.57 0.58 0.58 0.57 0.56 0.56 0.55 0.54 0.54 0.54 0.53 0.53 0.54
0.61 0.60 0.59 0.58 0.56 0.53 0.50 0.47 0.46 0.44 0.43 0.43 0.44 0.45 0.45 0.45 0.44 0.44 0.43 0.42 0.41 0.40 0.38 0.35 0.33 0.33 0.35 0.35 0.33 0.31 0.30 0.30 0.30 0.29 0.28 0.26 0.30 0.32 0.33 0.30 0.28 0.25 0.26 0.30 0.33 0.35 0.36 0.38 0.40 0.42 0.44 0.46 0.47 0.49 0.50 0.50 0.50 0.50 0.50 0.50 0.50 0.50 0.51 0.52 0.52 0.53 0.53 0.55 0.55 0.56 0.57 0.56 0.57 0.57 0.56 0.55 0.54 0.54 0.54 0.54 0.54 0.54 0.54 0.54 0.54
0.56 0.56 0.55 0.53 0.51 0.49 0.48 0.47 0.47 0.47 0.47 0.46 0.45 0.44 0.43 0.43 0.43 0.43 0.41 0.40 0.38 0.36 0.34 0.33 0.34 0.33 0.33 0.31 0.29 0.28 0.27 0.28 0.27 0.28 0.28 0.28 0.30 0.32 0.33 0.31 0.28 0.26 0.28 0.31 0.34 0.36 0.37 0.39 0.41 0.43 0.45 0.47 0.49 0.50 0.50 0.50 0.50 0.50 0.50 0.50 0.51 0.51 0.52 0.53 0.53 0.54 0.55 0.56 0.56 0.56 0.57 0.57 0.56 0.55 0.53 0.54 0.56 0.57 0.57 0.57 0.57 0.56 0.56 0.56 0.55
0.51 0.49 0.49 0.50 0.50 0.49 0.47 0.45 0.44 0.43 0.42 0.40 0.40 0.40 0.41 0.42 0.42 0.41 0.38 0.37 0.35 0.33 0.33 0.33 0.33 0.32 0.30 0.29 0.27 0.28 0.27 0.29 0.28 0.28 0.29 0.31 0.32 0.33 0.33 0.31 0.30 0.27 0.28 0.33 0.35 0.36 0.38 0.40 0.42 0.44 0.46 0.48 0.50 0.50 0.50 0.50 0.50 0.51 0.51 0.51 0.51 0.51 0.52 0.53 0.54 0.55 0.55 0.56 0.57 0.57 0.57 0.55 0.54 0.55 0.56 0.57 0.57 0.57 0.57 0.57 0.57 0.57 0.56 0.56 0.56
0.49 0.47 0.47 0.46 0.44 0.43 0.43 0.42 0.42 0.42 0.42 0.42 0.41 0.41 0.42 0.42 0.40 0.38 0.36 0.35 0.34 0.32 0.31 0.30 0.32 0.31 0.29 0.27 0.27 0.25 0.27 0.29 0.30 0.29 0.30 0.32 0.33 0.34 0.33 0.31 0.29 0.27 0.30 0.34 0.37 0.38 0.39 0.41 0.43 0.45 0.47 0.49 0.51 0.51 0.50 0.50 0.51 0.51 0.51 0.51 0.51 0.52 0.52 0.53 0.54 0.55 0.56 0.57 0.57 0.55 0.54 0.55 0.56 0.56 0.57 0.57 0.58 0.58 0.57 0.57 0.57 0.57 0.57 0.57 0.56
0.47 0.46 0.46 0.46 0.45 0.46 0.46 0.45 0.43 0.43 0.43 0.43 0.43 0.43 0.42 0.41 0.39 0.38 0.36 0.35 0.33 0.32 0.31 0.30 0.30 0.29 0.29 0.29 0.27 0.27 0.29 0.31 0.30 0.30 0.31 0.33 0.33 0.33 0.32 0.30 0.28 0.27 0.31 0.35 0.37 0.39 0.40 0.42 0.43 0.46 0.49 0.51 0.52 0.52 0.52 0.52 0.53 0.52 0.52 0.52 0.52 0.52 0.53 0.54 0.55 0.56 0.56 0.55 0.55 0.54 0.55 0.56 0.56 0.56 0.57 0.57 0.58 0.57 0.57 0.57 0.57 0.58 0.58 0.58 0.58
0.48 0.46 0.45 0.44 0.44 0.43 0.43 0.44 0.43 0.42 0.42 0.42 0.42 0.42 0.42 0.40 0.39 0.37 0.36 0.33 0.31 0.30 0.30 0.30 0.30 0.29 0.28 0.27 0.27 0.28 0.29 0.29 0.30 0.30 0.31 0.32 0.32 0.33 0.32 0.30 0.27 0.26 0.31 0.35 0.37 0.39 0.40 0.42 0.44 0.46 0.48 0.50 0.52 0.53 0.53 0.53 0.54 0.54 0.54 0.53 0.53 0.53 0.54 0.55 0.57 0.58 0.56 0.55 0.55 0.56 0.57 0.57 0.57 0.57 0.57 0.58 0.59 0.58 0.58 0.59 0.59 0.59 0.58 0.58 0.58
0.48 0.47 0.46 0.44 0.44 0.43 0.43 0.43 0.43 0.42 0.41 0.41 0.40 0.39 0.39 0.38 0.38 0.36 0.34 0.32 0.31 0.31 0.31 0.29 0.28 0.27 0.26 0.25 0.26 0.27 0.28 0.29 0.29 0.31 0.33 0.33 0.33 0.33 0.32 0.30 0.26 0.27 0.32 0.35 0.37 0.39 0.40 0.42 0.44 0.46 0.47 0.49 0.51 0.52 0.53 0.53 0.54 0.55 0.55 0.56 0.56 0.56 0.57 0.58 0.59 0.57 0.54 0.57 0.58 0.58 0.58 0.58 0.58 0.58 0.59 0.60 0.60 0.60 0.60 0.60 0.60 0.60 0.59 0.59 0.59
0.45 0.44 0.43 0.43 0.42 0.42 0.41 0.41 0.40 0.40 0.39 0.38 0.38 0.37 0.37 0.37 0.36 0.34 0.33 0.32 0.31 0.30 0.27 0.26 0.26 0.25 0.25 0.25 0.26 0.25 0.26 0.28 0.29 0.31 0.33 0.33 0.33 0.33 0.32 0.29 0.25 0.26 0.32 0.35 0.37 0.39 0.40 0.42 0.44 0.45 0.47 0.49 0.51 0.51 0.52 0.53 0.54 0.55 0.56 0.57 0.57 0.58 0.59 0.59 0.59 0.55 0.57 0.60 0.60 0.60 0.59 0.58 0.58 0.59 0.60 0.61 0.61 0.61 0.60 0.60 0.60 0.59 0.60 0.59 0.58
0.43 0.42 0.42 0.42 0.41 0.40 0.39 0.39 0.39 0.38 0.38 0.38 0.38 0.38 0.37 0.37 0.35 0.34 0.32 0.30 0.28 0.25 0.24 0.24 0.24 0.24 0.24 0.25 0.26 0.26 0.27 0.28 0.30 0.32 0.33 0.32 0.32 0.33 0.31 0.28 0.25 0.26 0.31 0.34 0.36 0.38 0.40 0.42 0.43 0.44 0.46 0.48 0.50 0.50 0.51 0.52 0.54 0.55 0.56 0.57 0.58 0.59 0.59 0.60 0.57 0.56 0.60 0.61 0.61 0.61 0.60 0.59 0.59 0.60 0.61 0.61 0.61 0.61 0.60 0.60 0.61 0.60 0.58 0.57 0.56
0.42 0.41 0.40 0.40 0.39 0.40 0.40 0.39 0.39 0.39 0.39 0.39 0.38 0.38 0.37 0.35 0.34 0.32 0.30 0.26 0.23 0.23 0.24 0.23 0.23 0.24 0.24 0.25 0.26 0.27 0.27 0.28 0.30 0.32 0.32 0.32 0.32 0.32 0.31 0.28 0.26 0.26 0.30 0.33 0.36 0.37 0.39 0.41 0.43 0.43 0.44 0.46 0.48 0.49 0.51 0.52 0.53 0.54 0.55 0.56 0.58 0.59 0.60 0.59 0.58 0.58 0.61 0.62 0.62 0.61 0.61 0.60 0.59 0.60 0.61 0.61 0.61 0.62 0.61 0.61 0.60 0.59 0.58 0.57 0.56
0.43 0.42 0.41 0.41 0.41 0.41 0.41 0.40 0.40 0.40 0.40 0.39 0.38 0.37 0.36 0.34 0.32 0.28 0.23 0.23 0.23 0.23 0.24 0.24 0.24 0.24 0.24 0.24 0.24 0.26 0.27 0.28 0.30 0.32 0.32 0.32 0.32 0.32 0.30 0.28 0.26 0.26 0.30 0.32 0.35 0.37 0.38 0.41 0.42 0.42 0.43 0.44 0.46 0.47 0.48 0.50 0.52 0.53 0.55 0.56 0.58 0.59 0.60 0.59 0.59 0.59 0.61 0.62 0.62 0.61 0.61 0.60 0.60 0.59 0.59 0.60 0.60 0.60 0.59 0.58 0.58 0.58 0.58 0.57 0.55
0.43 0.43 0.42 0.41 0.41 0.41 0.41 0.40 0.40 0.40 0.39 0.38 0.37 0.35 0.33 0.30 0.25 0.23 0.23 0.23 0.22 0.22 0.23 0.23 0.23 0.23 0.23 0.24 0.25 0.26 0.27 0.30 0.32 0.33 0.33 0.32 0.32 0.31 0.29 0.27 0.26 0.27 0.29 0.31 0.34 0.36 0.38 0.40 0.41 0.41 0.42 0.43 0.44 0.45 0.46 0.47 0.50 0.52 0.54 0.56 0.58 0.59 0.60 0.59 0.58 0.59 0.60 0.61 0.61 0.60 0.59 0.59 0.58 0.58 0.57 0.57 0.57 0.57 0.56 0.56 0.56 0.56 0.56 0.57 0.56
Wind_Speed
21 21 21 21 22 23 22 22 21 21 21 20 20 20 19 19 18 18 17 17 16 16 15 14 14 14 13 13 13 13 13 13 13 13 13 13 12 12 12 12 12 12 12 12 13 13 13 13 14 14 14 14 14 15 15 15 16 16 16 16 17 17 18 18 19 20 20 20 20 20 20 21 21 21 22 22 22 22 23 23 24 24 25 25 25
22 22 22 21 22 23 23 22 22 22 22 21 21 21 20 20 20 20 19 19 18 17 16 16 16 15 15 15 15 14 15 14 14 14 14 14 14 14 14 14 14 14 14 14 14 14 14 15 15 15 16 16 16 16 16 17 17 18 18 18 18 19 19 20 20 21 21 21 21 21 21 22 22 22 22 23 23 23 24 24 24 24 25 25 25
21 22 22 22 22 23 23 23 23 23 22 22 22 22 22 21 21 20 20 20 20 19 18 17 17 17 17 17 16 16 16 16 16 16 16 16 15 16 16 16 15 15 16 15 15 16 16 16 16 17 17 17 17 18 18 18 19 19 19 20 20 21 21 21 22 22 23 23 22 22 22 22 23 23 23 24 24 24 24 24 24 24 25 25 25
22 23 24 22 21 22 23 23 23 23 23 23 23 23 23 24 23 22 21 21 21 21 21 20 19 19 18 18 18 17 17 17 17 17 17 17 17 17 17 17 17 17 17 17 16 17 17 18 18 18 18 18 19 19 19 19 20 20 21 21 22 22 22 22 23 23 23 24 24 24 24 24 24 24 24 24 24 24 24 24 24 24 25 25 25
22 23 24 23 21 21 22 22 22 23 24 25 25 24 24 24 24 24 23 23 23 22 23 22 22 21 20 20 19 19 19 19 18 19 19 19 19 19 18 18 18 18 18 18 19 19 19 19 19 19 19 20 20 20 20 21 21 22 22 22 23 23 23 24 24 25 25 25 25 25 25 25 25 25 25 25 25 25 24 25 25 25 25 26 26
20 21 22 22 21 21 22 22 22 23 24 25 26 26 26 25 25 25 25 25 25 24 24 24 23 23 22 22 21 21 21 20 20 20 20 20 20 20 20 20 20 20 20 20 20 20 20 20 20 21 21 21 21 21 21 22 22 23 23 24 24 24 25 25 26 26 26 27 27 26 26 26 26 26 26 26 26 26 26 26 26 26 26 26 26
20 20 21 22 21 21 22 24 24 24 24 25 25 26 27 26 26 27 28 28 27 27 26 25 25 25 24 24 24 23 23 23 23 22 21 21 21 22 22 21 21 21 22 22 22 22 22 22 22 22 22 22 23 23 23 24 24 24 25 25 25 26 26 26 27 27 28 28 28 28 28 28 27 27 27 27 28 27 27 27 27 26 26 26 26
21 22 23 23 24 25 25 26 26 26 25 26 27 27 27 27 28 28 28 28 28 27 27 27 26 26 26 27 26 26 26 26 26 24 23 22 23 23 23 23 23 23 23 23 23 23 23 23 23 24 24 24 24 25 25 25 25 26 26 26 27 27 28 28 28 28 29 29 29 29 29 29 29 29 29 29 29 29 28 28 28 27 28 28 29
22 23 23 24 24 25 26 26 27 27 27 26 26 27 27 28 28 28 27 27 27 28 28 28 28 29 29 30 30 29 28 28 28 27 25 25 25 25 25 25 24 24 24 24 24 25 25 25 25 25 25 25 26 27 27 27 27 27 27 27 28 28 29 29 29 30 30 30 31 31 31 31 31 31 31 31 31 30 30 30 30 30 30 30 30
22 23 23 24 24 24 25 25 25 26 26 26 26 26 26 26 27 28 29 29 29 29 29 30 30 31 32 32 33 32 31 30 30 29 27 27 27 27 26 26 26 26 25 25 26 26 27 27 27 27 27 28 28 28 28 28 28 29 29 29 29 30 30 30 31 31 32 32 32 32 32 32 32 32 32 32 32 33 32 32 32 32 31 31 30
24 24 25 25 25 26 26 26 27 27 27 27 27 27 28 28 29 30 30 30 30 30 31 32 32 34 34 34 34 34 33 32 31 31 30 29 29 28 28 28 28 28 28 28 28 28 28 29 29 29 29 30 30 30 30 30 30 30 31 31 31 31 32 32 32 32 33 34 34 33 33 34 33 33 34 34 34 34 33 33 33 32 32 32 32
26 27 27 27 27 27 28 28 29 29 29 30 30 30 30 30 31 31 32 32 32 32 32 33 34 35 36 35 34 34 34 32 31 31 31 31 30 30 30 30 30 30 30 30 30 30 30 30 31 31 32 32 32 32 33 33 33 33 33 33 34 34 34 34 34 34 34 35 35 35 35 35 35 34 34 34 34 34 34 34 34 34 34 34 33
28 28 29 29 29 29 30 30 30 31 31 32 32 32 33 33 33 33 34 34 34 35 35 35 35 36 36 35 35 35 34 33 32 32 32 32 32 32 32 32 31 31 31 31 31 32 32 33 33 34 34 33 34 34 34 34 35 35 36 36 36 36 36 36 36 36 36 36 36 36 36 37 37 36 35 35 36 36 36 36 36 36 36 36 35
28 29 30 30 31 31 31 31 32 32 32 32 33 34 34 35 35 35 35 35 35 36 36 36 36 36 36 35 35 35 34 33 32 33 33 33 33 33 32 32 32 32 32 32 33 33 33 34 34 34 35 35 35 35 35 35 36 37 37 37 38 38 38 38 38 38 38 38 38 38 37 38 38 38 38 38 38 38 38 38 38 38 38 38 38
29 30 30 31 31 31 32 32 32 32 32 33 33 34 35 35 35 35 35 35 35 35 36 36 36 36 36 36 35 36 35 33 33 34 34 34 34 33 33 33 33 33 34 34 34 34 34 34 35 35 35 35 35 35 36 37 37 38 39 39 39 39 39 39 39 38 38 39 39 39 39 38 38 38 38 38 39 39 39 40 40 40 40 41 41
30 30 31 31 31 31 31 32 32 32 33 33 33 34 34 35 35 35 35 35 35 35 35 36 36 36 36 36 35 36 35 34 34 35 34 34 34 33 33 34 34 34 34 35 35 35 35 35 35 35 36 36 36 36 37 38 39 40 40 40 40 40 40 40 40 40 40 40 40 41 41 41 41 41 41 41 41 41 42 42 42 42 42 42 42
31 31 31 31 31 31 31 32 32 32 32 33 33 33 34 34 35 35 35 35 36 35 35 35 36 36 36 36 36 36 35 35 35 35 34 34 34 33 33 34 34 34 35 35 35 35 35 35 36 36 37 37 38 38 38 39 40 40 41 41 40 40 40 40 40 41 42 42 42 43 43 44 44 44 45 45 45 44 44 44 43 43 43 43 42
32 32 32 32 32 32 32 32 32 32 32 32 33 33 34 34 34 35 35 36 36 36 35 35 36 36 36 36 36 36 36 35 35 34 34 34 34 33 33 33 34 34 34 34 34 35 35 36 36 37 38 38 38 38 38 39 40 40 41 41 41 41 40 40 40 41 41 41 42 42 43 43 43 44 44 44 45 45 45 45 45 44 44 44 43
33 33 33 33 33 33 33 32 32 33 33 33 33 33 34 34 34 34 35 35 35 35 35 35 35 35 35 35 36 36 36 35 35 34 34 34 34 33 33 33 33 33 34 34 34 34 34 35 35 37 37 37 37 37 38 39 40 41 41 42 42 42 41 41 40 40 40 41 41 41 41 41 41 42 42 43 43 43 44 45 45 45 45 45 44
33 34 34 34 34 34 34 34 34 33 34 34 34 34 33 34 34 34 34 34 34 34 34 34 34 34 34 35 35 35 35 34 34 34 34 34 33 33 33 33 33 34 33 33 33 33 34 35 36 36 36 36 36 37 38 39 40 40 41 42 42 42 41 41 41 41 41 41 42 42 42 42 41 41 42 42 42 42 43 44 44 44 45 45 45
34 34 34 35 35 35 35 35 35 34 34 34 35 34 34 34 34 34 34 34 34 33 32 32 33 33 33 34 34 33 33 33 33 33 33 33 32 32 33 33 34 34 33 33 33 34 35 35 36 35 34 34 35 36 38 39 40 40 41 41 42 42 42 43 43 43 43 43 43 43 43 42 42 42 42 42 41 41 42 43 43 43 44 44 44
35 35 35 35 35 35 35 35 35 35 35 35 36 36 35 35 35 35 35 35 34 33 32 32 33 32 32 32 32 32 32 32 32 32 32 32 32 32 32 33 33 33 34 34 35 35 35 35 35 34 34 35 36 38 39 40 40 41 41 41 42 42 42 43 43 43 43 43 43 42 42 41 41 41 41 41 41 41 42 42 43 43 44 44 45
35 35 35 35 35 35 35 35 35 35 35 36 36 36 36 36 36 36 35 34 34 33 33 33 32 32 31 31 31 31 31 31 31 31 31 31 31 32 32 32 32 33 34 34 35 35 34 34 34 34 35 36 38 39 40 40 40 40 40 40 40 40 41 41 42 42 42 42 42 42 41 41 41 41 41 41 41 41 42 42 43 43 44 45 45
35 35 35 35 35 35 35 35 35 35 35 35 35 35 36 36 36 35 34 33 33 33 33 32 32 31 31 31 30 30 30 30 30 30 30 30 31 31 31 31 32 32 33 33 33 33 33 34 34 35 36 37 38 39 39 39 39 39 39 39 39 39 40 40 40 40 40 41 41 41 41 41 41 41 41 41 41 42 42 43 43 44 45 45 46
36 35 35 35 35 35 35 35 35 35 35 35 35 35 35 35 34 33 32 32 33 33 32 31 31 30 30 29 29 29 29 28 28 29 29 29 30 30 30 30 31 31 31 31 32 32 32 33 34 35 36 36 37 37 37 37 37 38 38 38 39 39 39 39 39 40 40 41 41 41 41 41 41 42 42 42 43 43 44 44 44 45 45 46 46
37 36 36 36 36 36 36 36 36 36 35 34 34 33 33 32 32 31 31 31 31 30 29 29 28 28 27 27 27 27 26 26 26 27 27 28 28 29 29 29 29 29 29 30 30 31 31 32 33 34 35 35 35 35 35 36 36 37 38 38 38 39 39 39 40 41 41 42 42 42 43 42 43 43 43 43 43 43 43 44 44 44 44 45 45
37 36 36 35 35 35 35 35 35 35 34 33 32 31 31 31 30 30 30 30 29 28 27 26 26 25 25 25 24 24 24 24 25 25 25 26 26 26 27 27 27 27 27 28 28 29 30 32 32 33 33 33 34 35 36 36 37 37 38 38 39 39 40 40 41 41 42 42 42 43 43 43 42 42 42 42 43 42 42 43 43 43 43 43 44
36 36 35 34 34 34 33 33 33 32 32 31 30 29 29 29 29 29 29 29 28 26 25 24 24 23 23 23 23 23 23 23 23 24 24 24 24 24 24 24 25 25 25 26 27 28 30 30 30 31 32 33 34 35 35 36 36 37 38 38 39 39 40 41 41 42 42 43 43 43 43 42 42 42 41 41 41 41 41 42 42 42 42 42 43
36 35 34 33 33 32 31 31 30 30 29 28 27 27 27 27 27 27 26 26 25 24 23 23 22 21 21 22 22 22 22 22 22 22 22 21 21 22 22 22 23 24 24 25 26 27 28 28 29 30 31 32 33 34 35 35 36 37 37 37 38 38 39 39 40 40 41 42 42 43 43 43 42 42 42 41 41 41 41 41 41 41 41 42 42
35 34 33 32 32 31 30 29 28 27 27 26 25 25 25 24 24 24 23 23 22 21 21 21 20 20 20 20 20 20 20 20 20 20 19 19 19 20 20 21 21 22 23 24 25 26 26 27 29 30 31 32 33 34 34 35 35 36 36 36 37 37 37 38 38 39 39 40 40 41 41 41 41 41 41 40 40 40 40 40 40 40 40 40 40
33 32 32 31 30 29 28 28 27 25 24 24 24 23 22 21 20 20 20 20 20 19 19 19 19 19 19 19 18 18 18 18 18 18 18 18 18 18 18 19 20 20 22 23 23 24 26 27 29 30 31 32 32 33 34 34 35 35 36 36 36 36 37 37 37 37 38 38 38 38 38 38 38 38 38 38 38 38 38 38 38 38 37 37 36
32 31 31 30 29 27 27 26 25 23 22 22 22 21 20 18 17 17 18 18 18 18 18 18 18 18 18 17 16 16 15 15 15 15 15 15 15 16 17 17 18 19 20 21 22 24 25 27 28 29 30 31 32 33 33 34 35 35 36 36 36 36 37 37 37 37 37 37 37 37 37 36 36 36 36 36 36 35 35 34 34 34 33 33 32
32 31 30 28 26 25 24 23 22 21 21 20 19 18 18 18 17 16 16 16 16 16 16 16 16 15 14 14 13 13 12 12 12 11 12 12 13 14 15 16 17 18 19 20 22 24 25 27 28 29 30 31 32 33 33 34 35 35 36 36 36 36 36 36 35 35 35 35 34 34 34 34 34 33 33 33 32 32 31 31 31 31 31 30 30
31 29 27 25 24 23 22 21 19 19 18 17 17 17 17 16 16 16 15 15 15 15 14 13 13 12 12 11 11 10 10 9 9 9 10 11 12 13 14 14 16 17 18 20 22 24 25 27 28 29 30 31 32 33 33 34 34 34 34 34 34 33 33 32 31 31 30 30 29 29 29 29 29 29 29 29 29 29 29 29 29 29 29 29 29
28 26 24 23 22 20 20 19 18 17 16 16 16 15 15 15 15 15 15 15 14 13 12 12 11 11 11 10 9 9 8 8 8 8 9 10 10 11 12 13 15 16 18 19 22 24 25 26 28 29 30 31 31 32 32 31 31 31 31 30 29 29 28 27 27 26 26 25 25 25 26 26 26 27 27 28 28 28 28 28 28 28 28 28 28
25 23 22 21 19 19 18 18 17 17 16 16 16 16 16 16 16 15 15 14 13 13 12 11 11 10 9 9 8 8 7 7 7 7 8 8 9 10 11 13 15 16 18 20 22 23 25 26 28 29 29 30 30 29 29 28 28 28 27 26 25 25 24 24 24 23 23 23 23 23 23 24 24 25 25 26 26 27 27 27 27 28 28 29 28
21 20 20 19 19 19 18 18 18 18 17 17 18 18 17 17 16 15 15 14 13 13 12 11 10 9 9 8 8 7 7 7 6 6 6 7 9 10 12 14 15 17 18 20 22 23 25 26 27 27 28 28 28 27 26 26 26 25 24 24 23 22 22 22 22 22 21 21 21 21 22 22 22 23 23 24 25 25 25 26 27 27 28 28 28
18 19 19 20 20 19 19 19 19 19 18 18 18 18 17 17 16 15 14 14 13 12 11 10 10 9 8 8 7 7 6 5 5 5 6 7 9 10 12 14 16 17 19 20 21 23 24 25 26 26 26 26 25 25 24 24 24 23 22 21 21 21 21 21 21 20 20 19 19 19 20 20 20 20 21 21 22 23 23 24 25 25 26 27 27
18 20 20 20 20 20 21 21 21 19 18 18 18 17 17 16 15 14 14 13 12 11 11 10 9 9 8 7 6 5 5 4 4 5 6 8 9 11 13 15 16 18 19 20 21 22 23 24 25 26 26 25 24 23 23 22 22 21 21 20 19 20 20 20 19 19 18 18 17 17 17 18 18 18 19 20 21 22 23 24 24 24 25 25 25
20 21 21 22 22 22 23 23 22 20 19 18 18 17 16 15 14 14 13 12 11 11 10 9 8 7 7 6 5 4 4 3 3 4 6 8 10 11 13 15 17 18 19 20 20 22 23 24 25 26 25 24 23 22 21 20 20 20 19 19 18 19 19 18 17 17 16 15 15 15 16 16 17 18 19 20 21 22 22 22 22 22 22 22 22
23 22 22 22 23 23 22 22 20 19 18 17 17 16 15 14 13 12 12 11 10 10 9 8 7 7 6 5 4 3 2 2 3 5 6 8 10 12 14 16 17 18 19 19 20 21 23 24 25 25 24 23 22 21 20 19 19 19 19 18 18 18 17 16 16 15 14 14 14 15 16 17 18 19 19 19 19 19 19 18 18 18 18 18 18
22 22 22 22 21 20 20 19 18 17 16 16 15 14 13 13 12 11 11 10 9 9 8 8 7 6 5 4 3 3 2 2 4 5 7 9 10 12 14 16 17 18 18 18 20 21 22 24 24 24 24 23 21 19 19 19 19 19 18 18 17 17 16 15 14 14 13 13 14 15 16 17 17 17 16 15 15 15 14 14 13 13 13 13 14
20 20 20 19 19 18 18 17 16 16 15 14 14 13 12 12 11 10 10 9 8 8 8 8 7 6 5 4 3 3 2 2 4 6 8 9 11 12 14 16 17 18 18 18 19 21 22 23 24 24 23 22 20 19 19 19 19 19 18 17 16 15 15 14 13 12 12 13 14 15 15 14 13 12 12 12 12 11 11 10 10 10 9 9 9
18 18 17 17 17 17 17 16 15 14 14 13 12 11 11 10 10 9 9 8 8 8 8 7 6 5 4 3 2 2 2 3 4 6 8 9 11 12 14 16 17 18 18 19 19 21 22 23 23 24 23 22 20 19 19 19 19 18 18 17 15 14 14 13 12 12 12 12 12 12 12 11 10 10 10 10 10 9 9 8 7 7 6 5 5
16 16 15 15 15 15 15 14 14 13 12 11 11 10 10 9 9 8 8 8 9 8 8 7 6 5 4 3 2 1 2 3 5 6 8 9 11 12 14 16 17 18 19 19 20 21 22 23 23 23 23 23 21 19 19 19 19 18 17 16 14 13 13 12 13 13 11 10 10 10 10 10 10 9 9 9 7 6 5 5 5 5 4 4 3
13 13 13 13 14 13 13 12 12 11 10 10 10 9 9 8 8 8 8 8 9 8 7 6 5 4 3 3 2 2 3 4 5 6 8 9 11 12 14 16 17 19 20 20 20 21 22 22 23 23 23 23 22 20 19 19 19 18 17 15 14 13 13 13 13 12 9 8 8 9 10 10 9 8 8 7 4 2 1 2 3 4 4 4 3
11 11 11 12 11 11 11 10 10 9 9 9 8 8 8 8 8 8 9 9 8 8 7 6 5 4 3 2 2 2 3 4 5 6 8 9 11 12 14 16 17 18 20 21 21 21 22 22 23 23 23 24 23 21 20 20 20 18 16 14 13 13 14 14 13 10 7 7 7 9 9 9 8 7 6 4 2 2 3 3 3 3 4 4 4
10 10 10 10 10 9 9 9 9 8 8 8 8 7 7 8 8 9 9 8 8 7 6 5 4 4 3 3 3 3 4 4 5 6 8 9 10 12 14 15 17 18 19 21 21 21 22 22 23 23 24 24 24 23 21 21 20 19 16 14 14 14 15 14 12 9 7 6 7 8 9 8 8 7 5 3 3 3 4 4 4 5 5 5 5
8 9 9 8 8 8 8 8 8 8 8 8 7 7 8 8 8 8 8 8 8 7 6 5 4 4 3 3 4 4 5 5 6 7 7 9 10 12 13 15 16 17 19 20 21 22 22 22 22 23 23 24 24 24 22 21 21 19 17 15 14 14 15 13 11 9 8 7 7 8 8 8 7 6 5 4 3 3 4 5 5 5 6 6 7
8 7 7 7 7 7 7 8 8 8 8 8 7 8 8 8 8 8 8 8 7 6 6 5 5 4 4 4 4 5 5 6 6 7 8 9 10 12 13 14 15 17 18 19 21 21 22 22 22 22 23 23 24 24 23 22 21 20 18 16 15 14 14 12 10 10 9 8 7 8 8 7 7 6 5 5 4 4 5 6 6 7 7 8 9
6 7 6 6 6 6 7 7 7 8 8 8 8 8 8 8 8 8 7 7 6 6 6 6 6 5 5 5 5 6 6 6 7 7 8 9 10 11 12 13 15 16 17 19 20 21 21 22 22 22 22 22 23 25 25 23 21 21 20 18 16 15 14 12 10 10 10 9 8 7 7 8 8 7 6 6 6 6 6 7 8 8 8 9 10
Wind_Direction
234 237 239 238 239 241 242 244 244 244 245 245 246 248 249 250 250 248 246 247 247 249 252 252 253 255 256 257 259 260 261 262 264 264 265 266 266 266 269 270 269 268 270 272 272 273 274 273 273 273 274 275 273 271 268 266 267 269 267 265 265 264 264 264 264 265 266 266 267 268 268 268 269 269 269 269 268 269 268 268 268 268 268 268 267
236 239 241 241 241 242 245 246 246 246 246 247 247 248 249 251 252 251 249 249 248 249 251 253 253 254 255 256 257 258 259 261 262 263 263 264 265 267 270 270 268 269 272 273 273 273 275 274 274 274 275 276 275 273 270 268 268 268 267 266 266 265 265 265 266 266 267 267 267 268 268 268 268 268 269 269 270 270 270 269 269 268 268 268 268
240 242 243 244 243 243 247 248 249 249 248 249 249 249 250 251 253 253 251 250 249 249 251 252 253 254 254 255 257 257 258 259 260 261 261 262 264 267 269 269 269 270 273 274 273 273 275 276 275 275 276 276 276 274 273 271 270 269 269 269 268 268 267 267 267 267 268 269 269 268 269 268 268 269 269 270 270 270 270 270 270 270 269 269 268
243 246 246 246 246 245 246 248 249 250 250 250 251 251 251 251 252 253 254 253 252 251 251 252 252 253 253 255 256 257 258 258 258 259 259 260 264 266 268 268 269 271 272 274 274 275 276 276 275 275 276 276 276 275 273 271 271 271 271 271 270 271 270 269 269 269 269 269 270 270 270 270 270 271 271 270 270 269 269 270 270 270 270 270 270
249 249 245 244 246 246 246 246 248 250 251 251 252 252 253 252 251 253 254 254 254 254 252 251 251 252 253 254 255 257 258 258 257 258 259 261 263 265 266 267 267 269 271 274 276 276 276 276 276 276 276 276 276 275 273 272 272 272 272 272 271 271 271 270 270 270 270 270 270 270 271 271 271 271 271 271 271 270 270 269 269 270 270 270 271
250 247 243 244 246 246 246 247 251 254 253 252 252 251 252 253 252 254 255 256 256 256 254 253 252 253 254 255 256 256 258 259 259 259 260 261 263 265 266 267 267 268 271 274 275 276 276 276 277 277 277 276 276 276 275 275 274 273 273 273 272 272 272 271 271 271 270 270 270 270 270 270 271 271 271 271 271 271 271 270 270 270 270 270 270
247 244 244 246 248 248 249 251 255 258 255 253 253 253 253 254 255 258 259 258 257 256 255 254 253 254 256 257 257 257 258 260 260 260 261 262 263 264 265 266 268 269 271 273 275 275 275 276 276 277 277 277 277 277 277 276 275 274 274 273 273 272 272 271 271 270 270 270 269 270 270 270 270 270 270 270 270 270 270 270 270 270 270 269 270
249 250 250 252 252 253 254 255 257 258 257 255 256 255 255 256 258 261 261 258 256 255 255 256 256 256 257 257 258 258 258 260 261 261 261 261 263 264 265 266 267 269 271 272 273 274 275 275 276 276 277 277 277 277 277 277 276 275 274 274 274 273 273 272 271 270 270 269 269 269 269 269 269 269 270 270 270 270 270 270 270 270 270 270 271
251 252 254 256 257 257 257 257 257 258 258 257 257 258 258 258 258 259 259 257 257 257 258 259 258 258 258 259 259 259 259 260 261 260 259 260 262 263 265 266 267 268 270 271 272 273 275 275 276 276 277 278 278 277 276 276 275 275 275 275 275 274 274 273 272 271 271 270 270 270 269 269 269 269 269 269 269 270 270 271 271 271 271 271 272
254 255 256 258 258 258 258 258 258 258 258 259 259 260 261 260 259 258 258 259 261 261 260 260 259 259 260 261 260 260 260 261 260 258 257 259 261 262 263 265 266 267 269 271 272 273 273 274 275 275 276 277 277 276 276 275 275 275 275 275 275 275 275 274 273 272 271 271 271 271 270 269 269 269 268 268 269 269 270 270 270 271 271 271 272
258 258 259 259 259 259 259 258 258 259 258 259 260 260 260 261 260 260 260 261 262 262 261 261 261 262 263 263 262 260 261 261 259 257 256 258 260 261 263 264 265 267 268 270 272 273 273 273 274 275 275 276 276 275 275 275 274 274 275 275 275 275 274 274 273 273 272 271 271 270 270 270 269 269 268 268 269 269 269 269 270 270 271 271 272
260 260 260 261 260 260 260 259 259 259 259 259 260 261 261 261 261 260 260 261 262 262 262 262 263 264 264 263 262 261 261 260 258 256 256 258 260 262 263 265 266 267 269 270 271 272 272 273 274 275 276 276 276 276 275 274 274 274 275 275 276 275 275 274 274 273 272 272 271 270 270 270 270 269 268 268 269 269 269 269 269 270 270 271 271
261 261 261 262 262 262 261 261 261 261 261 261 261 262 263 263 262 262 262 262 263 263 263 263 264 264 264 262 262 261 261 260 258 256 257 258 260 262 264 265 266 268 269 269 271 271 272 273 274 275 276 276 277 277 276 275 275 275 275 275 275 275 275 274 274 273 272 272 271 271 271 270 269 268 268 269 269 269 269 269 270 270 270 270 270
262 262 262 262 263 263 263 262 262 263 263 263 262 262 263 263 263 264 264 263 263 264 264 264 264 264 263 262 261 260 259 259 259 258 258 259 261 263 264 265 266 268 268 269 271 272 273 274 274 275 275 276 276 275 275 276 277 277 277 276 275 274 274 274 274 273 272 272 271 271 271 270 270 269 269 269 269 269 269 270 270 270 270 270 270
263 263 263 263 263 263 263 263 263 264 264 264 264 263 263 263 263 263 263 263 263 263 264 264 264 263 263 262 260 259 259 259 259 259 259 260 261 263 264 265 266 267 268 270 271 272 273 274 275 275 275 275 275 274 275 276 277 278 278 278 277 275 273 273 273 273 273 272 270 270 270 270 270 269 269 269 268 268 269 269 270 270 270 270 270
264 263 263 264 264 263 263 263 263 264 265 265 264 264 264 264 263 263 263 263 263 263 263 263 263 262 262 260 259 259 259 259 258 259 259 260 261 263 264 266 267 269 270 270 272 273 274 274 274 274 275 275 275 275 275 276 277 277 278 278 277 276 274 273 273 272 272 272 271 270 269 269 269 269 269 269 269 269 269 269 270 270 270 270 270
264 263 263 263 263 263 263 263 264 264 265 265 265 265 264 264 263 263 263 262 262 262 262 262 262 262 260 259 259 259 259 258 258 258 258 260 262 264 265 267 268 270 271 272 273 274 273 273 273 274 275 275 275 275 276 277 277 278 278 278 277 276 275 274 273 272 272 272 272 271 271 270 270 270 269 269 268 268 268 268 268 269 269 270 270
264 264 264 263 263 262 263 263 264 264 265 265 265 265 265 264 264 263 263 263 262 262 262 262 262 261 260 259 258 258 258 257 257 257 258 260 263 265 266 268 269 270 271 272 273 274 274 273 273 275 276 276 276 276 277 278 278 279 279 279 278 277 276 276 275 274 273 273 273 273 272 271 271 270 270 269 268 268 267 267 267 268 268 268 269
265 264 264 264 263 263 262 263 264 265 265 266 266 265 265 265 265 264 263 264 263 263 262 262 261 261 259 258 258 257 257 256 257 258 259 261 263 266 267 268 270 270 271 272 273 274 275 275 275 275 276 277 277 277 278 278 279 280 280 280 279 277 276 276 275 274 274 274 273 273 273 271 271 271 270 270 269 268 267 267 267 267 267 267 268
265 265 265 265 264 263 263 263 263 265 266 267 267 266 265 265 264 264 263 263 263 263 262 261 260 260 259 258 258 257 256 256 256 258 260 262 264 266 268 269 270 270 270 272 274 275 276 277 277 277 278 279 279 279 279 279 280 280 280 279 278 278 277 275 274 274 274 273 273 273 272 271 271 270 270 269 268 268 267 267 267 266 266 267 267
265 265 265 265 264 264 264 263 264 264 265 266 267 267 266 265 264 263 263 262 262 262 262 261 260 259 259 258 257 256 255 255 256 258 260 262 264 266 268 269 270 269 270 273 275 276 277 278 279 279 279 279 279 279 280 280 280 280 279 278 278 277 276 275 274 274 273 273 272 272 271 271 271 270 270 269 268 268 267 267 267 266 266 267 267
265 266 266 266 265 265 264 264 264 264 265 266 267 266 265 264 263 262 262 261 260 260 261 260 259 258 258 257 255 254 255 256 257 259 261 262 264 266 268 269 269 269 271 273 275 277 278 278 278 278 278 278 278 279 281 281 281 280 280 279 278 277 276 275 274 273 272 272 272 272 271 271 270 270 269 269 268 268 268 268 268 267 267 267 268
266 266 266 266 266 265 265 264 264 264 265 266 267 266 265 264 262 261 260 259 259 259 260 260 258 257 256 255 254 255 256 257 258 259 261 263 264 265 267 268 269 269 271 273 276 277 277 277 278 278 278 279 280 281 282 281 281 281 280 280 279 278 277 276 274 273 272 271 271 271 271 270 270 269 269 269 269 269 269 269 269 268 268 268 268
265 266 265 265 265 265 265 265 265 265 265 266 267 266 265 263 261 259 258 258 258 258 259 258 257 256 255 254 254 256 257 258 259 260 261 263 264 265 266 268 269 270 272 274 276 277 277 277 278 280 281 281 282 282 282 282 282 281 281 281 281 280 279 277 275 274 273 272 271 271 271 270 270 270 270 270 270 270 270 270 269 269 269 269 269
264 265 265 265 265 265 265 265 265 265 266 266 266 266 264 261 259 257 256 256 257 257 257 255 254 253 252 253 254 256 257 258 259 260 261 262 263 264 266 267 269 271 272 274 275 276 278 279 280 281 282 283 283 283 283 283 283 283 283 282 282 281 280 277 276 275 274 273 273 272 272 271 271 271 271 271 271 271 270 270 270 269 269 270 270
264 264 264 265 265 265 266 266 266 266 266 266 266 265 262 259 257 255 256 256 255 254 253 251 250 249 250 251 253 254 255 257 259 260 262 263 263 264 266 268 269 271 273 275 276 278 279 281 282 283 283 284 284 284 284 284 284 284 283 282 282 281 279 278 277 276 275 274 273 273 273 272 272 271 271 271 270 270 270 270 270 270 270 270 270
264 263 264 265 265 266 266 266 266 265 265 264 264 263 260 258 256 255 254 253 251 250 248 246 245 247 249 250 251 252 253 255 257 259 261 263 264 266 268 269 270 272 274 276 278 280 281 282 283 284 284 284 284 284 284 285 284 284 283 282 281 280 279 278 277 276 276 275 274 274 273 273 272 272 271 270 270 269 269 270 270 270 270 270 270
263 263 264 264 265 265 265 265 264 263 262 262 262 260 259 257 255 253 251 248 246 245 243 243 244 247 249 250 249 249 251 253 255 258 260 263 265 267 268 269 271 274 276 278 279 282 283 284 284 284 285 285 285 286 286 286 285 285 284 283 282 281 280 279 278 277 276 275 274 274 273 273 272 271 271 270 269 269 270 270 270 270 270 270 270
263 263 263 263 263 263 263 263 262 261 259 259 259 259 258 255 251 248 247 245 242 240 240 243 245 246 247 248 247 247 250 253 256 259 261 264 266 267 268 271 274 276 278 280 282 284 285 285 286 287 288 288 288 288 288 287 287 286 286 285 284 283 282 281 280 278 277 276 275 274 273 272 272 271 270 269 269 269 270 270 270 270 270 270 270
261 261 261 261 261 261 261 261 261 259 256 255 256 257 256 252 247 244 242 239 237 236 238 242 243 241 241 243 244 246 249 252 256 259 262 264 267 270 272 275 277 278 280 283 284 285 286 288 289 290 291 291 290 290 289 289 288 287 286 286 285 284 282 282 281 280 279 278 277 276 274 273 272 271 270 269 269 269 270 269 269 269 269 270 270
258 258 258 259 259 258 258 257 256 255 253 252 252 252 249 244 241 237 234 231 231 233 234 236 237 236 236 239 243 247 249 252 256 260 263 265 269 272 275 277 277 279 283 285 286 288 290 291 292 292 292 292 291 291 290 290 289 289 288 287 286 285 283 282 281 280 279 277 277 276 275 274 273 271 270 269 270 269 269 269 269 269 268 268 267
257 257 257 257 256 255 254 252 250 248 247 248 247 243 235 229 228 228 226 227 229 230 231 231 232 233 234 238 242 246 249 251 255 259 262 266 270 273 275 277 279 283 287 288 289 291 294 294 295 295 294 294 294 293 293 292 291 291 290 289 287 286 285 283 282 281 279 278 277 276 275 274 272 271 270 269 269 269 268 268 267 267 266 265 264
255 255 254 253 251 250 249 246 243 241 241 240 236 228 220 217 218 219 221 222 224 225 225 226 226 227 230 233 236 239 243 247 252 256 261 267 271 274 276 279 283 287 291 293 294 296 298 298 298 298 298 297 296 296 295 294 293 292 291 290 288 287 285 284 283 281 280 279 277 276 274 273 271 270 269 269 268 268 268 268 266 265 263 262 262
252 251 248 246 245 244 242 237 232 231 229 224 216 211 210 210 210 210 211 212 213 215 216 217 219 221 223 225 227 230 234 240 247 256 265 272 274 275 280 285 289 292 294 296 299 301 303 303 302 301 301 300 299 298 297 296 295 294 292 291 289 287 286 286 285 283 282 281 279 276 274 272 270 269 269 269 268 268 268 267 266 264 262 262 262
247 243 239 238 238 235 229 222 218 213 207 201 199 199 200 200 200 200 199 200 201 202 203 205 210 213 215 215 216 219 224 234 248 261 271 277 280 284 290 295 298 299 300 301 304 305 306 306 306 305 304 303 301 300 299 298 297 295 294 292 291 290 289 288 286 286 285 283 280 278 275 272 270 269 269 269 269 269 268 266 265 263 262 262 263
237 233 230 227 224 216 209 203 199 194 189 188 188 187 187 187 189 189 189 190 191 192 193 196 200 204 205 206 209 216 225 237 252 265 274 283 292 299 301 303 307 308 307 308 310 310 311 311 310 309 308 307 305 304 303 301 299 298 297 296 295 293 291 290 289 287 286 284 282 279 277 275 272 271 271 271 270 269 268 267 265 263 262 262 262
222 217 212 208 202 196 191 187 184 182 181 181 181 181 181 182 183 183 183 184 185 187 188 189 192 195 199 202 209 219 230 242 257 271 282 292 301 304 307 311 315 315 314 314 315 316 316 316 315 314 313 311 310 309 307 304 303 301 300 299 298 297 295 294 292 290 288 286 284 281 278 277 275 274 274 273 272 271 269 268 266 264 262 261 261
195 192 189 187 184 181 178 177 176 175 175 176 177 177 178 177 176 176 178 179 181 184 186 188 192 197 202 207 213 220 228 243 261 276 288 299 305 309 313 318 320 320 319 320 320 321 321 321 321 320 319 317 316 314 312 309 307 306 304 303 302 301 299 297 295 293 290 288 286 284 282 281 280 278 277 276 275 273 272 270 268 266 264 262 261
168 169 169 169 169 169 169 169 168 167 168 169 171 172 172 172 174 176 177 178 182 184 187 191 196 198 199 202 206 212 223 239 256 275 296 311 317 319 322 324 324 324 324 324 325 325 326 326 326 326 324 323 321 320 318 315 312 310 309 308 307 305 303 301 299 296 293 291 290 289 287 285 283 282 281 280 278 276 274 272 270 267 265 263 262
145 150 153 154 155 157 158 158 159 161 163 165 168 171 171 172 173 175 176 181 185 186 187 190 190 186 183 185 190 203 226 255 280 298 313 322 326 328 329 330 329 329 328 328 329 330 330 331 331 331 329 327 326 325 324 321 318 316 315 313 311 309 308 306 303 300 297 295 294 293 291 289 288 288 286 283 281 279 276 273 270 268 265 263 262
133 138 142 145 149 152 155 158 160 162 163 164 167 168 167 166 169 173 178 182 183 182 181 179 174 172 176 181 187 201 234 286 311 319 327 332 333 335 335 335 334 334 333 333 333 333 334 335 335 334 333 332 330 329 328 326 323 321 320 318 316 314 312 309 307 304 301 300 298 297 297 296 294 291 288 285 282 279 276 272 269 267 264 262 260
130 134 139 143 148 152 155 156 157 158 160 162 164 164 164 166 170 174 177 177 175 175 174 168 164 170 179 183 189 206 240 295 320 330 337 339 338 339 340 340 340 339 338 337 337 337 337 338 338 338 337 337 335 334 332 331 329 327 325 322 321 319 316 313 310 307 305 304 304 304 303 301 297 293 289 286 284 280 275 270 267 265 263 261 259
129 134 139 143 146 149 151 151 152 154 156 158 160 162 166 169 170 169 169 168 167 169 168 164 164 170 178 183 196 219 257 313 331 338 341 340 340 343 345 344 344 344 343 342 341 341 342 342 342 342 342 341 340 338 337 336 335 333 331 329 326 323 320 318 315 311 309 309 310 310 309 308 305 300 297 294 290 283 276 271 267 262 260 259 257
130 133 137 140 143 146 148 148 150 151 152 154 157 159 161 163 162 162 164 164 164 164 164 166 168 171 174 184 203 229 282 321 332 339 342 342 344 347 347 347 348 349 348 346 345 345 346 347 347 346 346 346 345 342 341 340 338 337 335 333 330 327 325 324 321 318 315 313 312 314 318 321 320 315 310 304 295 283 274 267 260 253 246 243 242
132 134 136 139 142 144 146 147 149 152 155 157 159 159 159 161 162 165 167 169 169 169 170 173 176 178 182 195 220 264 302 321 333 340 343 344 347 349 349 350 351 351 351 351 349 349 350 351 351 350 350 351 349 346 344 343 341 340 339 338 336 334 332 329 326 323 318 315 318 324 327 328 328 327 324 317 301 284 269 255 240 230 220 210 206
133 136 138 141 144 147 149 152 156 158 160 161 162 164 167 169 172 173 172 170 171 173 174 176 180 186 197 213 244 287 307 320 332 338 340 343 347 349 350 352 353 353 354 354 353 352 353 354 354 353 354 354 353 351 349 347 345 344 343 342 342 341 338 334 332 330 324 323 331 336 334 332 332 335 336 332 323 300 239 196 192 191 182 169 158
134 138 141 145 148 151 154 157 159 162 164 166 168 172 175 176 176 174 172 171 173 177 179 182 187 198 215 235 263 293 310 320 327 333 338 342 346 349 351 352 354 355 356 356 356 356 356 357 356 355 356 357 358 357 355 353 351 349 348 347 346 346 344 341 341 342 339 337 342 345 344 345 347 348 348 356 33 77 104 130 142 145 144 140 134
137 140 143 146 150 155 158 160 162 164 168 171 173 176 178 179 177 176 176 177 179 182 185 191 201 215 235 256 275 293 306 315 323 331 336 339 343 348 351 353 354 356 357 357 358 358 359 359 358 357 358 360 1 1 0 359 356 355 354 353 351 350 349 349 352 355 354 352 354 355 356 359 2 4 11 35 77 90 98 110 116 116 119 123 127
141 144 147 150 154 159 162 165 167 170 174 178 180 181 181 181 180 180 182 185 186 189 195 205 218 232 248 266 282 292 300 309 319 327 332 336 341 346 349 351 354 356 357 358 359 360 1 1 360 358 359 2 3 3 3 2 1 0 0 359 356 354 354 356 1 4 5 6 8 5 5 7 11 17 32 59 85 92 97 103 107 111 117 123 128
142 146 150 155 160 165 168 171 174 178 181 184 185 186 185 185 186 188 191 194 198 203 211 221 232 243 256 270 281 289 296 305 315 323 329 334 339 343 347 350 353 355 357 358 359 0 2 3 1 360 1 3 5 5 5 4 4 4 4 3 1 359 359 3 8 10 10 14 17 14 15 23 30 35 50 74 88 96 105 109 110 112 117 123 130
144 149 154 159 165 170 174 176 179 182 186 189 191 193 193 192 193 196 200 206 213 220 229 237 245 253 262 271 279 285 293 302 309 317 325 331 336 341 345 348 351 353 356 358 359 360 2 3 2 0 1 4 6 7 7 6 5 5 5 5 5 4 5 9 15 15 14 17 22 24 30 40 46 50 64 82 92 99 107 112 114 116 119 125 131